Weather in Ikabya

Russia / Zabaykalsky Krai     56˚59′49″N   118˚46′10″E
temp.,
°C
wind,
m/s
gust,
m/s
humid.,
%
clouds,
%
prec.,
mm/h
press.,
hPa
HPBL,
m
18 january, mon
mon1800:00−42˚ese019767 0.0 103718
03:00−43˚ese019677 0.0 103618
06:00−43˚e009532 0.0 103518
09:00−44˚nnw019428 0.0 103418
12:00−39˚nw118722 0.0 103130
15:00−38˚nw118629 0.0 102765
18:00−41˚nnw018264 0.0 102718
21:00−40˚wnw117482 0.0 102418
19 january, tue
tue1900:00−38˚wnw1175100 0.0 102219
03:00−37˚nw1175100 0.0 102019
06:00−36˚wnw1171100 0.0 101919
09:00−36˚wnw1172100 0.0 101819
12:00−33˚wnw118080 0.0 101675
15:00−29˚wnw118490 0.0 101498
18:00−31˚nw1189100 0.0 101519
21:00−30˚nnw1199100 0.1 101619
20 january, wed
wed2000:00−31˚wsw11100100 0.0 101719
03:00−29˚w1298100 0.0 101819
06:00−30˚wnw1195100 0.0 101819
09:00−29˚n1189100 0.0 101919
12:00−26˚n1183100 0.0 101840
15:00−24˚n1184100 0.0 101860
18:00−27˚n1181100 0.0 102019
21:00−27˚wsw1184100 0.0 102219
21 january, thu
thu2100:00−27˚wsw1199100 0.1 102319
03:00−27˚sw11100100 0.2 102419
06:00−27˚wsw1198100 0.1 102519
09:00−31˚w1199100 0.1 102819
12:00−27˚wnw1193100 0.0 102855
15:00−26˚ne1195100 0.0 102945
18:00−31˚e119795 0.0 103119
21:00−31˚sw118997 0.0 103219
22 january, fri
fri2200:00−34˚sw118492 0.0 103119
03:00−35˚sw007789 0.0 103119
06:00−36˚w007570 0.0 103019
09:00−37˚n017137 0.0 103019
12:00−32˚nw11712 0.0 102734
15:00−30˚nw11771 0.0 102575
18:00−34˚n117761 0.0 102519
21:00−33˚wnw117780 0.0 102419